• In Switzerland
  • List of Countries
  • For 7 days
  • Water Temperature
  • Satellite Maps
  • Weather Map
  • Weather Widgets
  • user-avatar
    Login

    Hourly Weather Burhanovka

    Today, 16 July, Monday

    Time Temperature Precipitation Wind Pressure Humidity
    00:00 +19°C° 0 mm 3 mps 734 mmHg 86%
    01:00 +18°C° 0 mm 3 mps 734 mmHg 88%
    02:00 +17°C° 0 mm 2 mps 734 mmHg 90%
    03:00 +17°C° 0 mm 2 mps 734 mmHg 92%
    04:00 +17°C° 0 mm 2 mps 734 mmHg 95%
    05:00 +19°C° 0 mm 2 mps 734 mmHg 90%
    06:00 +20°C° 0 mm 2 mps 734 mmHg 86%
    07:00 +21°C° 0 mm 2 mps 734 mmHg 82%
    08:00 +24°C° 0.1 mm 2 mps 735 mmHg 75%
    09:00 +25°C° 0.1 mm 2 mps 735 mmHg 69%
    10:00 +27°C° 0.1 mm 2 mps 735 mmHg 63%
    11:00 +27°C° 0 mm 2 mps 735 mmHg 60%
    12:00 +28°C° 0 mm 2 mps 735 mmHg 57%
    13:00 +28°C° 0 mm 2 mps 734 mmHg 54%
    14:00 +29°C° 0 mm 2 mps 734 mmHg 54%
    15:00 +29°C° 0 mm 2 mps 734 mmHg 53%
    16:00 +29°C° 0 mm 2 mps 734 mmHg 52%
    17:00 +28°C° 0 mm 1 mps 734 mmHg 58%
    18:00 +27°C° 0 mm 1 mps 734 mmHg 63%
    19:00 +26°C° 0 mm 1 mps 734 mmHg 69%
    20:00 +25°C° 0 mm 1 mps 734 mmHg 72%
    21:00 +23°C° 0 mm 2 mps 734 mmHg 76%
    22:00 +20°C° 0 mm 2 mps 734 mmHg 79%
    23:00 +20°C° 0 mm 2 mps 734 mmHg 81%

    Tomorrow, 17 July, Tuesday

    Time Temperature Precipitation Wind Pressure Humidity
    00:00 +19°C° 0 mm 2 mps 734 mmHg 83%
    01:00 +18°C° 0 mm 2 mps 734 mmHg 84%
    02:00 +17°C° 0 mm 2 mps 734 mmHg 86%
    03:00 +17°C° 0 mm 2 mps 734 mmHg 87%
    04:00 +16°C° 0 mm 2 mps 734 mmHg 89%
    05:00 +17°C° 0 mm 2 mps 734 mmHg 85%
    06:00 +18°C° 0 mm 2 mps 734 mmHg 82%
    07:00 +19°C° 0 mm 2 mps 735 mmHg 79%
    08:00 +21°C° 0 mm 2 mps 735 mmHg 72%
    09:00 +23°C° 0 mm 2 mps 734 mmHg 66%
    10:00 +25°C° 0 mm 2 mps 734 mmHg 60%
    11:00 +26°C° 0 mm 2 mps 734 mmHg 58%
    12:00 +26°C° 0 mm 2 mps 734 mmHg 56%
    13:00 +27°C° 0 mm 2 mps 734 mmHg 54%
    14:00 +26°C° 0 mm 2 mps 734 mmHg 57%
    15:00 +26°C° 0 mm 2 mps 733 mmHg 61%
    16:00 +26°C° 0 mm 1 mps 733 mmHg 65%
    17:00 +25°C° 0 mm 1 mps 733 mmHg 68%
    18:00 +24°C° 0 mm 2 mps 733 mmHg 71%
    19:00 +23°C° 0 mm 2 mps 733 mmHg 74%
    20:00 +23°C° 0 mm 2 mps 733 mmHg 74%
    21:00 +21°C° 0 mm 2 mps 733 mmHg 74%
    22:00 +21°C° 0 mm 3 mps 733 mmHg 75%
    23:00 +20°C° 0.4 mm 2 mps 733 mmHg 80%

    Day after tomorrow, 18 July, Wednesday

    Time Temperature Precipitation Wind Pressure Humidity
    00:00 +20°C° 0.4 mm 2 mps 733 mmHg 86%
    01:00 +19°C° 0.4 mm 2 mps 732 mmHg 91%
    02:00 +19°C° 0.9 mm 2 mps 732 mmHg 93%
    03:00 +19°C° 0.9 mm 2 mps 732 mmHg 94%
    04:00 +18°C° 0.9 mm 2 mps 732 mmHg 96%
    05:00 +19°C° 0.5 mm 3 mps 732 mmHg 95%
    06:00 +19°C° 0.5 mm 3 mps 732 mmHg 93%
    07:00 +19°C° 0.5 mm 3 mps 732 mmHg 92%
    08:00 +20°C° 0 mm 4 mps 732 mmHg 88%
    09:00 +21°C° 0 mm 4 mps 732 mmHg 83%
    10:00 +21°C° 0 mm 4 mps 732 mmHg 78%
    11:00 +23°C° 0 mm 4 mps 732 mmHg 72%
    12:00 +26°C° 0 mm 4 mps 732 mmHg 66%
    13:00 +27°C° 0 mm 4 mps 732 mmHg 61%
    14:00 +28°C° 0.2 mm 4 mps 732 mmHg 61%
    15:00 +28°C° 0.2 mm 4 mps 732 mmHg 62%
    16:00 +28°C° 0.2 mm 3 mps 732 mmHg 63%
    17:00 +27°C° 0.5 mm 3 mps 732 mmHg 69%
    18:00 +25°C° 0.5 mm 3 mps 732 mmHg 75%
    19:00 +24°C° 0.5 mm 3 mps 732 mmHg 82%
    20:00 +22°C° 0.4 mm 3 mps 733 mmHg 85%
    21:00 +20°C° 0.4 mm 3 mps 733 mmHg 89%
    22:00 +19°C° 0.4 mm 3 mps 733 mmHg 92%
    23:00 +19°C° 0.3 mm 3 mps 733 mmHg 94%

    19 July, Thursday

    Time Temperature Precipitation Wind Pressure Humidity
    00:00 +18°C° 0.3 mm 3 mps 733 mmHg 95%
    01:00 +18°C° 0.3 mm 2 mps 733 mmHg 96%
    02:00 +17°C° 0.4 mm 2 mps 733 mmHg 96%
    03:00 +17°C° 0.4 mm 2 mps 733 mmHg 96%
    04:00 +17°C° 0.4 mm 2 mps 733 mmHg 96%
    05:00 +18°C° 0 mm 2 mps 733 mmHg 94%
    06:00 +19°C° 0 mm 3 mps 733 mmHg 92%
    07:00 +20°C° 0 mm 3 mps 733 mmHg 90%
    08:00 +21°C° 0 mm 3 mps 733 mmHg 83%
    09:00 +24°C° 0 mm 2 mps 733 mmHg 76%
    10:00 +25°C° 0 mm 2 mps 733 mmHg 68%
    11:00 +26°C° 0 mm 2 mps 733 mmHg 65%
    12:00 +27°C° 0 mm 2 mps 733 mmHg 62%
    13:00 +28°C° 0 mm 2 mps 733 mmHg 59%
    14:00 +28°C° 0.3 mm 2 mps 733 mmHg 63%
    15:00 +27°C° 0.3 mm 2 mps 733 mmHg 67%
    16:00 +27°C° 0.3 mm 2 mps 733 mmHg 70%
    17:00 +26°C° 0.4 mm 2 mps 733 mmHg 76%
    18:00 +25°C° 0.4 mm 2 mps 733 mmHg 82%
    19:00 +24°C° 0.4 mm 2 mps 733 mmHg 87%
    20:00 +23°C° 0.1 mm 2 mps 733 mmHg 89%
    21:00 +20°C° 0.1 mm 2 mps 733 mmHg 92%
    22:00 +19°C° 0.1 mm 2 mps 734 mmHg 94%
    23:00 +18°C° 0 mm 2 mps 733 mmHg 95%

    20 July, Friday

    Time Temperature Precipitation Wind Pressure Humidity
    00:00 +18°C° 0 mm 2 mps 733 mmHg 95%
    01:00 +17°C° 0 mm 2 mps 733 mmHg 96%
    02:00 +17°C° 0 mm 2 mps 733 mmHg 96%
    03:00 +17°C° 0 mm 2 mps 734 mmHg 96%
    04:00 +16°C° 0 mm 2 mps 734 mmHg 96%
    05:00 +17°C° 0 mm 2 mps 734 mmHg 94%
    06:00 +18°C° 0 mm 3 mps 734 mmHg 93%
    07:00 +19°C° 0 mm 3 mps 734 mmHg 91%
    08:00 +21°C° 0 mm 3 mps 734 mmHg 85%
    09:00 +22°C° 0 mm 3 mps 734 mmHg 80%
    10:00 +25°C° 0 mm 3 mps 734 mmHg 74%
    11:00 +25°C° 0.7 mm 3 mps 734 mmHg 73%
    12:00 +26°C° 0.7 mm 3 mps 734 mmHg 72%
    13:00 +26°C° 0.7 mm 3 mps 734 mmHg 72%
    14:00 +26°C° 0.7 mm 3 mps 734 mmHg 72%
    15:00 +26°C° 0.7 mm 3 mps 734 mmHg 73%
    16:00 +26°C° 0.7 mm 3 mps 734 mmHg 74%
    17:00 +25°C° 0.3 mm 3 mps 734 mmHg 77%
    18:00 +24°C° 0.3 mm 3 mps 734 mmHg 80%
    19:00 +22°C° 0.3 mm 3 mps 734 mmHg 84%
    20:00 +21°C° 0 mm 3 mps 734 mmHg 85%
    21:00 +20°C° 0 mm 3 mps 734 mmHg 86%
    22:00 +19°C° 0 mm 3 mps 734 mmHg 87%
    23:00 +19°C° 0 mm 3 mps 734 mmHg 87%

    21 July, Saturday

    Time Temperature Precipitation Wind Pressure Humidity
    00:00 +19°C° 0 mm 4 mps 735 mmHg 86%
    01:00 +19°C° 0 mm 4 mps 735 mmHg 86%
    02:00 +18°C° 0 mm 4 mps 735 mmHg 85%
    03:00 +18°C° 0 mm 4 mps 735 mmHg 85%
    04:00 +17°C° 0 mm 4 mps 735 mmHg 84%
    05:00 +18°C° 0 mm 4 mps 735 mmHg 81%
    06:00 +18°C° 0 mm 4 mps 736 mmHg 78%
    07:00 +19°C° 0 mm 4 mps 736 mmHg 75%
    08:00 +20°C° 0 mm 5 mps 736 mmHg 69%
    09:00 +22°C° 0 mm 5 mps 736 mmHg 64%
    10:00 +23°C° 0 mm 5 mps 736 mmHg 58%
    11:00 +25°C° 0 mm 5 mps 736 mmHg 55%
    12:00 +25°C° 0 mm 5 mps 736 mmHg 53%
    13:00 +26°C° 0 mm 5 mps 737 mmHg 50%
    14:00 +26°C° 0 mm 5 mps 737 mmHg 51%
    15:00 +26°C° 0 mm 5 mps 737 mmHg 52%
    16:00 +26°C° 0 mm 5 mps 737 mmHg 53%
    17:00 +25°C° 0 mm 4 mps 737 mmHg 58%
    18:00 +23°C° 0 mm 4 mps 737 mmHg 62%
    19:00 +22°C° 0 mm 4 mps 737 mmHg 67%
    20:00 +21°C° 0 mm 4 mps 737 mmHg 68%
    21:00 +20°C° 0 mm 4 mps 737 mmHg 69%
    22:00 +18°C° 0 mm 4 mps 738 mmHg 69%
    23:00 +18°C° 0 mm 4 mps 738 mmHg 72%
    Show more